Weather History for Atlantic City, NJ

Change the Weather History Date:

Wednesday, October 2, 2013

  Actual Average Record
Temperature  
Mean Temperature 71 °F 61 °F  
Max Temperature 85 °F 71 °F 85 °F (2002)
Min Temperature 57 °F 51 °F 32 °F (1997)
Degree Days  
Heating Degree Days 0 5  
Month to date heating degree days 0 10  
Since 1 July heating degree days 102 72  
Cooling Degree Days 6 1  
Month to date cooling degree days 6 3  
Year to date cooling degree days 1058 1037  
Growing Degree Days 20 (Base 50)    
Moisture  
Dew Point 60 °F    
Average Humidity 72    
Maximum Humidity 100    
Minimum Humidity 43    
Precipitation  
Precipitation 0.00 in 0.11 in 1.74 in (1939)
Month to date precipitation 0.00 0.22  
Year to date precipitation 32.60 31.59  
Snow  
Snow 0.00 in 0.00 in 0.00 in (1903)
Month to date snowfall 0.0 0.0  
Since 1 July snowfall 0.0 0.0  
Since 1 September snowfall 0.0 0.0  
Snow Depth 0.00 in    
Sea Level Pressure  
Sea Level Pressure 30.01 in    
Wind  
Wind Speed 7 mph (West)    
Max Wind Speed 16 mph    
Max Gust Speed 24 mph    
Visibility 10 miles    
Events      
T = Trace of Precipitation, MM = Missing Value Source: NWS Daily Summary

Daily Weather History Graph

Daily Weather History Graph

Search for Another Location

Airport:

Trip Planner

Search our weather history database for the weather conditions in past years. The results will help you decide how hot, cold, wet, or windy it might be!

Date:

Astronomy

Oct. 02, 2013 Rise Set
Actual Time 6:55 AM EDT 6:38 PM EDT
Civil Twilight 6:28 AM EDT 7:05 PM EDT
Nautical Twilight 5:57 AM EDT 7:36 PM EDT
Astronomical Twilight 5:26 AM EDT 8:07 PM EDT
Moon 4:26 AM EDT (10/2) 5:13 PM EDT (10/2)
Length of Visible Light 12h 36m
Length of Day
11h 43m
Waning Crescent, 6% of the Moon is Illuminated
Oct 2
Waning Crescent
Oct 4
New
Oct 11
First Quarter
Oct 18
Full
Oct 26
Last Quarter

Hourly Weather History & Observations

Time (EDT) Temp. Heat Index Dew Point Humidity Pressure Visibility Wind Dir Wind Speed Gust Speed Precip Events Conditions
12:54 AM 64.9 °F - 60.1 °F 84% 29.99 in 10.0 mi WSW 4.6 mph - N/A   Clear
1:54 AM 64.0 °F - 60.1 °F 87% 30.00 in 10.0 mi West 3.5 mph - N/A   Clear
2:54 AM 61.0 °F - 59.0 °F 93% 29.99 in 10.0 mi Calm Calm - N/A   Partly Cloudy
3:54 AM 61.0 °F - 59.0 °F 93% 29.99 in 10.0 mi West 4.6 mph - N/A   Clear
4:54 AM 61.0 °F - 59.0 °F 93% 30.00 in 10.0 mi West 5.8 mph - N/A   Clear
5:54 AM 57.9 °F - 57.9 °F 100% 30.01 in 8.0 mi Calm Calm - N/A   Clear
6:54 AM 57.9 °F - 57.0 °F 97% 30.02 in 8.0 mi Calm Calm - N/A   Clear
7:54 AM 61.0 °F - 57.9 °F 90% 30.03 in 9.0 mi WSW 3.5 mph - N/A   Clear
8:54 AM 66.9 °F - 60.1 °F 79% 30.04 in 7.0 mi WNW 9.2 mph - N/A   Clear
9:54 AM 73.9 °F - 60.1 °F 62% 30.05 in 10.0 mi West 10.4 mph - N/A   Clear
10:54 AM 78.1 °F - 60.1 °F 54% 30.05 in 10.0 mi West 12.7 mph - N/A   Clear
11:54 AM 81.0 °F 81.3 °F 59.0 °F 47% 30.03 in 10.0 mi WNW 12.7 mph 20.7 mph N/A   Clear
12:54 PM 82.9 °F 83.2 °F 60.1 °F 46% 30.01 in 10.0 mi NW 12.7 mph 20.7 mph N/A   Clear
1:54 PM 82.9 °F 82.8 °F 59.0 °F 44% 30.00 in 10.0 mi West 11.5 mph - N/A   Clear
2:54 PM 84.9 °F 84.4 °F 59.0 °F 41% 29.98 in 10.0 mi West 12.7 mph 20.7 mph N/A   Clear
3:54 PM 84.0 °F 83.8 °F 59.0 °F 43% 29.97 in 10.0 mi WNW 13.8 mph - N/A   Clear
4:54 PM 82.9 °F 82.8 °F 59.0 °F 44% 29.97 in 10.0 mi West 11.5 mph - N/A   Clear
5:54 PM 81.0 °F 81.6 °F 60.1 °F 49% 29.98 in 10.0 mi West 9.2 mph 18.4 mph N/A   Clear
6:54 PM 77.0 °F - 61.0 °F 58% 30.00 in 10.0 mi WSW 4.6 mph - N/A   Clear
7:54 PM 73.0 °F - 61.0 °F 66% 30.01 in 10.0 mi SW 5.8 mph - N/A   Clear
8:54 PM 71.1 °F - 61.0 °F 70% 30.02 in 10.0 mi SW 6.9 mph - N/A   Clear
9:54 PM 69.1 °F - 61.0 °F 75% 30.03 in 10.0 mi SW 4.6 mph - N/A   Clear
10:54 PM 69.1 °F - 61.0 °F 75% 30.04 in 10.0 mi SW 5.8 mph - N/A   Clear
11:54 PM 69.1 °F - 61.0 °F 75% 30.05 in 10.0 mi SW 5.8 mph - N/A   Clear